Regional Weather Roundup
Issued by NWS

Home | Current Version | Previous Version | Text Only | Print | Product List | Glossary On
Versions: 1 2 3 4 5 6 7 8 9 10 11 12 13 14 15 16 17 18 19 20 21 22 23 24 25 26 27 28 29 30 31 32 33 34 35 36 37 38 39 40 41 42 43 44 45 46 47 48 49 50
000
ASUS42 KTBW 310715
RWRFL
FLORIDA REGIONAL WEATHER ROUNDUP
NATIONAL WEATHER SERVICE TAMPA BAY RUSKIN FL
300 AM EDT MON AUG 31 2015

NOTE: "FAIR" INDICATES FEW OR NO CLOUDS BELOW 12,000 FEET WITH NO
SIGNIFICANT WEATHER AND/OR OBSTRUCTIONS TO VISIBILITY.


FLZ001>010-012>015-112-114-115-310800-
PANHANDLE FLORIDA

CITY           SKY/WX    TMP DP  RH WIND       PRES   REMARKS
PENSACOLA      CLEAR     75  71  87 NW5       30.00F
PENSACOLA NAS  CLEAR     73  71  93 NW3       30.00F
MILTON NAS     CLEAR     72  70  93 N3        30.01
CRESTVIEW      CLEAR     72  70  93 CALM      30.02F
VALPARAISO     CLEAR     76  69  80 W3        30.00F
MARY ESTHER    CLEAR     74  70  88 NW2       29.99
TRI COUNTY     FAIR      70  69  97 CALM      30.01F
PANAMA CITY    FAIR      70  68  93 NW3       29.99F
TYNDALL AFB    CLEAR     71  69  93 CALM      29.98F
APALACHICOLA   CLEAR     71  70  96 N5        29.98F

STATION/POSITION SKY/WX   TEMP    WIND        PRES    WAVE   SWELL
                          AIR SEA DIR/SP/G            HT/PER HT/PER
                          (F)     (DEG/KT/KT) (MB)    (FT/S) (FT/S)
30.1N   87.6W              83 85  330/  2/  2 1015.6F   1
29.2N   88.2W              82 86   60/  2/  4 1016.5F   1/ 5
28.8N   86.0W              84 86   10/  6/  8 1015.6F   1/ 6   2/ 6
PANAMA CITY BEAC NOT AVBL
CAPE SAN BLAS    NOT AVBL
TOWER C                    84      30/  6/  7 1015.0F
28.5N   84.5W              85 86   50/  6/  6 1015.0F   1/ 3

$$
FLZ011-016>038-118-127-128-134-139-239-310800-
NORTH FLORIDA

CITY           SKY/WX    TMP DP  RH WIND       PRES   REMARKS
MARIANNA       CLEAR     72  71  97 CALM      30.00F
TALLAHASSEE    CLEAR     74  70  87 CALM      30.00S
PERRY          CLOUDY   N/A N/A N/A E3        30.01S
CROSS CITY       N/A     74  72  93 E3        30.00F
LAKE CITY      CLOUDY    72  72 100 CALM      30.01F
GAINESVILLE    FOG       74  73  97 CALM      30.00F VSB 1
MAYPORT NAS    MOCLDY    78  75  90 SW3       30.00S
JACKSONVILLE   MOCLDY    74  73  97 W3        30.00S
JAX NAS        MOCLDY    80  75  84 W3        30.00F
JAX CRAIG      MOCLDY    75  74  96 CALM      30.00S
JAX CECIL      MOCLDY    73  73 100 CALM      30.01S FOG
FERNANDINA BEA FAIR      81  77  89 W5        29.98F
ST AUGUSTINE   CLOUDY    77  75  93 S7        30.00F

STATION/POSITION SKY/WX   TEMP    WIND        PRES    WAVE   SWELL
                          AIR SEA DIR/SP/G            HT/PER HT/PER
                          (F)     (DEG/KT/KT) (MB)    (FT/S) (FT/S)
SHELL POINT                78      70/  2/  4   N/A
KEATON BEACH               74      70/  6/  7 1016.0F
CEDAR KEY                  78     100/  6/  7 1016.0F
FERNANDINA       NOT AVBL
30.7N   81.3W                 85                N/A     5/11   2/11
MAYPORT          NOT AVBL
31.4N   80.9W              81 84  140/ 14/ 17 1016.2F   5/10   3/10
ST AUGUSTINE               77 83  180/  7/  8 1016.6F

$$
FLZ040-043>046-052-053-057-058-063-144-310800-
INTERIOR CENTRAL FLORIDA

CITY           SKY/WX    TMP DP  RH WIND       PRES   REMARKS
OCALA          MOCLDY    73  72  94 CALM      30.00F
THE VILLAGES     N/A     77  75  94 SE5       29.91S
LEESBURG       MOCLDY    78  74  87 S10       30.01S
SANFORD        MOCLDY    75  72  90 SE6       30.01S
ORLANDO EXEC   CLOUDY    76  74  93 SE5       30.01F
ORLANDO INTL   MOCLDY    76  74  93 SE8       30.01F
WINTER HAVEN   MOCLDY    77  75  93 SE7       30.01F
LAKELAND       MOCLDY    75  73  94 S5        30.01F
BARTOW         FAIR      75 N/A N/A CALM      30.01F
OKEECHOBEE     CLOUDY    73  73 100 SE3       30.01F

$$
FLZ041-047-054-059-064-141-147-310800-
EAST CENTRAL FLORIDA

CITY           SKY/WX    TMP DP  RH WIND       PRES   REMARKS
DAYTONA BEACH  CLOUDY    76  74  93 CALM      30.02R
DELAND           N/A     75  75 100 SE8       30.02F
CAPE CANAVERAL MOCLDY    76  73  92 S2        30.00F
PATRICK AFB    MOCLDY    77  75  92 S7        30.00F
MELBOURNE      PTCLDY    76  74  93 S3        30.01F
VERO BEACH     PTCLDY    75  72  90 CALM      30.01F
FT PIERCE      PTCLDY    75  73  93 CALM      30.01F

STATION/POSITION SKY/WX   TEMP    WIND        PRES    WAVE   SWELL
                          AIR SEA DIR/SP/G            HT/PER HT/PER
                          (F)     (DEG/KT/KT) (MB)    (FT/S) (FT/S)
28.5N   80.2W              80 83  140/ 16/ 19 1016.6F
28.9N   78.5W              81 86  190/ 12/ 14 1018.5S
TRIDENT PIER     NOT AVBL
28.4N   80.5W                 85                N/A     3/10   2/11
27.5N   80.2W                 83                N/A     3/11   2/11

$$
FLZ050-056-061-142-242-148-248-149-249-151-251-155-255-
160-260-310800-
WEST CENTRAL FLORIDA

CITY           SKY/WX    TMP DP  RH WIND       PRES   REMARKS
CRYSTAL RIVER  FAIR      73  73 100 CALM      29.99F
INVERNESS      FAIR      75  75 100 CALM      30.00F
BROOKSVILLE    CLOUDY    77  75  93 SE7       30.00F
CLEARWATER     CLOUDY    78  76  93 SE7       29.99S
TAMPA INTL     MOCLDY    78  75  90 SE7       30.00S
TAMPA EXEC     MOCLDY    79  75  89 SE5       30.00F
PLANT CITY     MOCLDY    77  77 100 SE3       30.02F
MACDILL AFB    CLOUDY    77  77 100 E8        29.99S
PETER O KNIGHT CLOUDY    79  77  94 E6        30.00F
ST PETERSBURG  CLOUDY    79  75  87 SE12      29.98S
SARASOTA       CLOUDY    77  75  93 SE8       29.98S
VENICE         PTSUNNY   77  75  94 E10       29.99S

STATION/POSITION SKY/WX   TEMP    WIND        PRES    WAVE   SWELL
                          AIR SEA DIR/SP/G            HT/PER HT/PER
                          (F)     (DEG/KT/KT) (MB)    (FT/S) (FT/S)
CEDAR KEY                  78     100/  6/  7 1016.0F
28.5N   84.5W              85 86   50/  6/  6 1015.0F   1/ 3
27.3N   84.2W                 87                N/A     2/ 4
CLEARWATER BEACH NOT AVBL
MIDDLE TAMPA BAY NOT AVBL
VENICE                     78 86   90/  6/  8 1014.9F

$$
FLZ066-069-070-075>078-162-262-165-265-310800-
SOUTHWEST FLORIDA AND KEYS

CITY           SKY/WX    TMP DP  RH WIND       PRES   REMARKS
PUNTA GORDA    CLOUDY    77  77 100 E6        30.00S
FT MYERS       MOCLDY    76  75  97 SE7       29.98S
SOUTHWEST INTL MOCLDY    77  75  93 SE7       29.99R
NAPLES         MOCLDY    78  75  90 E8        29.97F
MARATHON       PTCLDY    82  77  84 S7        29.99S
KEY WEST NAS   PTCLDY    81  74  79 S9        29.97F
KEY WEST INTL  PTCLDY    83  74  74 S13       29.97F

STATION/POSITION SKY/WX   TEMP    WIND        PRES    WAVE   SWELL
                          AIR SEA DIR/SP/G            HT/PER HT/PER
                          (F)     (DEG/KT/KT) (MB)    (FT/S) (FT/S)
VENICE                     78 86   90/  6/  8 1014.9F
NAPLES           NOT AVBL
26.0N   85.6W              85 86   40/ 10/ 12 1014.1F   3/ 5   2/ 5
DRY TORTUGAS                                    N/A
NW FL BAY                  85     180/ 13/ 15 1015.7
SAND KEY                   83     170/ 16     1014.9F
LONG KEY                   83 84  160/ 10/ 11 1016.1F
MOLASSES REEF              83 87  130/  9/ 10 1015.6F

$$
FLZ067-068-071>074-168-172>174-310800-
SOUTHEAST FLORIDA

CITY           SKY/WX    TMP DP  RH WIND       PRES   REMARKS
W PALM BEACH   PTCLDY    79  74  84 SE5       30.02F
FT LAUDER-EXEC CLEAR     77  75  93 E5        30.01F
FT LAUDERDALE  PTCLDY    79  74  84 SE7       30.00F
POMPANO BEACH  CLEAR     82  73  74 SE8       30.01F
PEMBROKE PINES CLEAR     77  74  90 E3        30.02F
OPA LOCKA      CLEAR     77  74  90 SE3       30.01F
MIAMI          PTCLDY    80  76  87 CALM      30.01F
WEST KENDALL   CLEAR     78  75  90 CALM        N/A
HOMESTEAD      CLEAR     79  75  89 SE2       29.99F

STATION/POSITION SKY/WX   TEMP    WIND        PRES    WAVE   SWELL
                          AIR SEA DIR/SP/G            HT/PER HT/PER
                          (F)     (DEG/KT/KT) (MB)    (FT/S) (FT/S)
PORT EVERGLADES            84     140/ 10/ 12 1016.1F
SETTLEMENT POINT           80     130/  7/  9 1017.7F

$$




USA.gov is the U.S. government's official web portal to all federal, state and local government web resources and services.